STARLINK-35967

Last updated on Wed Dec 31 2025 00:02:06 GMT+0000 (Coordinated Universal Time)

1 66634U 25271T 25364.48709284 .00051317 00000+0 12843-2 0 9990 2 66634 53.1597 103.3498 0001269 21.1427 338.9631 15.39620127 6904
UTC large
Height (km)
Speed (km/s)
/
Latitude / Longitude
Inclination (degrees)
Orbital Period (minutes)
Azimuth
Elevation
Range (km)
Doppler Factor

Next 0 passes for location: London (51.5072 / 0.1276)

Sorry there are no passes over London.